Miscellaneous Local Product
Issued by NWS Hastings, NE

Home | Current Version | Previous Version | Text Only | Print | Product List | Glossary Off
Versions: 1 2 3 4 5 6 7 8 9 10 11 12 13 14 15 16 17 18 19 20 21 22 23 24 25 26 27 28 29 30 31 32 33 34 35 36 37 38 39 40 41 42 43 44 45 46 47 48 49 50

384
AXUS43 KGID 130402
MISGRI

GID CWA HOURLY WEATHER ROUNDUP
NATIONAL WEATHER SERVICE HASTINGS NE
1000 PM CST TUE DEC 12 2017

NOTE: "FAIR" INDICATES FEW OR NO CLOUDS BELOW 12,000 FEET WITH NO
SIGNIFICANT WEATHER AND/OR OBSTRUCTIONS TO VISIBILITY.

...SOUTH CENTRAL NEBRASKA...

CITY           SKY/WX    TMP DP  RH WIND       PRES   REMARKS
GRAND ISLAND   CLEAR     37  21  52 SW8       29.86F WCI  31
KEARNEY        CLEAR     41  19  41 SW8       29.87F
HASTINGS       CLEAR     41  19  41 SW8       29.87F
ORD            CLEAR     38  20  48 CALM      29.82F
YORK           CLEAR     36  23  60 SW9       29.85F WCI  29
AURORA         CLEAR     37  19  49 SW13      29.85F WCI  29
LEXINGTON      CLOUDY    33  21  62 NW3       29.88F
HOLDREGE       CLEAR     42  21  43 SW8       29.88F
HEBRON         CLEAR     40  25  54 SW8       29.90F WCI  34

...NEBRASKA PANHANDLE...

CITY           SKY/WX    TMP DP  RH WIND       PRES   REMARKS
CHADRON        CLOUDY    43  18  36 NW8       29.95S
ALLIANCE       CLOUDY    25  14  63 W7        29.96S WCI  17
SCOTTSBLUFF    CLOUDY    34  14  43 NW10      30.00S WCI  26
SIDNEY         CLOUDY    44  11  26 W18       29.99F

...WESTERN AND NORTH CENTRAL NEBRASKA...

CITY           SKY/WX    TMP DP  RH WIND       PRES   REMARKS
VALENTINE      CLOUDY    37  21  52 SW8       29.82F WCI  31
AINSWORTH      CLOUDY    42  23  47 W12       29.81F
ONEILL         CLEAR     36  24  62 SW9       29.77F WCI  29
BROKEN BOW     CLEAR     37  20  50 W5        29.84F WCI  33
IMPERIAL       CLEAR     43  16  33 W14       29.96F
NORTH PLATTE   CLOUDY    28  19  69 NW9       29.89F WCI  19
MCCOOK         CLEAR     36  19  50 W9        29.93F WCI  29

...EASTERN NEBRASKA...

CITY           SKY/WX    TMP DP  RH WIND       PRES   REMARKS
NORFOLK        CLEAR     41  19  41 W9        29.77F
SO SIOUX CITY  CLEAR     26  21  81 E7        29.77F WCI  18
TEKAMAH        CLEAR     28  20  71 S9        29.80F WCI  19
ALBION         CLEAR     40  20  44 NW6       29.80F
OMAHA EPPLEY   CLEAR     31  24  75 SE13      29.84F WCI  21
OFFUTT AFB     CLEAR     24  20  86 E5        29.84F WCI  18
MILLARD        CLEAR     34  26  72 CALM      29.84F
LINCOLN        CLEAR     35  24  64 S6        29.88F WCI  30
NEBRASKA CITY  CLOUDY    35  27  74 SW12      29.88F WCI  27
BEATRICE       CLEAR     37  26  65 S8        29.90F WCI  30
FALLS CITY     CLOUDY    30  24  78 S5        29.93F WCI  25

...NORTHERN KANSAS...

CITY           SKY/WX    TMP DP  RH WIND       PRES   REMARKS
GOODLAND       CLEAR     44  15  31 W13       30.00F
HILL CITY      CLEAR     41  19  41 W7        29.94F
NORTON         CLEAR     37  14  38 SW13      29.91F WCI  29
PHILLIPSBURG   CLEAR     41  18  38 W8        29.91F
SMITH CENTER   CLEAR     34  18  51 S6        29.92F WCI  29
HAYS           CLEAR     45  16  31 W7        29.96F
RUSSELL        CLEAR     39  19  44 SW10      29.94F WCI  32
CONCORDIA      CLOUDY    43  23  45 S13       29.91F
SALINA         CLEAR     40  23  50 S13       29.95F WCI  32
TOPEKA         CLEAR     32  26  78 CALM      29.98F



USA.gov is the U.S. government's official web portal to all federal, state and local government web resources and services.